Hourly Data Report for October 11, 2013

All times are specified in Local Standard Time (LST). Add 1 hour to adjust for Daylight Saving Time where and when it is observed.

TORONTO INTL A
ONTARIO

43°40'36.000" N
79°37'50.000" W
173.40 m
6158731
71624
YYZ

Download Data

Hourly Data (October 2013)
Hourly Data Report for October 11, 2013
Temp Definition
°C
Dew Point Temp Definition
°C
Rel Hum Definition
%
Wind Dir Definition
10's deg

Wind Spd Definition
km/h
Visibility Definition
km
Stn Press Definition
kPa
Hmdx Definition


Wind Chill Definition


Weather Definition


TIME
00:00 Legend Double Dagger 9.0 5.0 76 33 9 24.1 100.06     LegendNANA
01:00 Legend Double Dagger 8.1 4.0 75 1 7 24.1 100.04     Mainly Clear
02:00 Legend Double Dagger 7.9 3.6 74 36 3 24.1 100.05     LegendNANA
03:00 Legend Double Dagger 7.9 3.4 73 31 5 24.1 100.02     LegendNANA
04:00 Legend Double Dagger 7.2 3.3 76 34 12 24.1 100.04     Clear
05:00 Legend Double Dagger 6.9 3.3 78 34 11 24.1 100.06     LegendNANA
06:00 Legend Double Dagger 6.8 3.6 80 1 12 24.1 100.07     LegendNANA
07:00 Legend Double Dagger 6.6 3.6 81 32 12 24.1 100.09     Mainly Clear
08:00 Legend Double Dagger 9.9 5.5 74 33 13 24.1 100.14     LegendNANA
09:00 Legend Double Dagger 13.0 7.3 68 1 9 24.1 100.17     LegendNANA
10:00 Legend Double Dagger 16.2 7.5 56 5 5 24.1 100.16     Mainly Clear
11:00 Legend Double Dagger 17.9 6.9 48 13 12 24.1 100.14     LegendNANA
12:00 Legend Double Dagger 18.5 8.3 51 13 7 24.1 100.08     LegendNANA
13:00 Legend Double Dagger 19.5 9.2 51 12 10 24.1 100.03     Mainly Clear
14:00 Legend Double Dagger 19.4 9.4 52 13 11 24.1 100.00     LegendNANA
15:00 Legend Double Dagger 19.3 8.4 49 15 11 24.1 100.00     LegendNANA
16:00 Legend Double Dagger 18.9 7.8 48 14 14 24.1 99.99     Mainly Clear
17:00 Legend Double Dagger 17.7 6.1 46 14 8 24.1 100.01     LegendNANA
18:00 Legend Double Dagger 16.5 3.0 40 14 4 24.1 100.00     LegendNANA
19:00 Legend Double Dagger 16.2 2.7 40 4 3 24.1 100.01     Mainly Clear
20:00 Legend Double Dagger 15.9 4.7 47 2 4 24.1 100.01     LegendNANA
21:00 Legend Double Dagger 13.6 5.1 56 1 8 24.1 100.03     LegendNANA
22:00 Legend Double Dagger 11.9 5.4 64 1 2 24.1 100.03     Clear
23:00 Legend Double Dagger 12.9 7.0 67 1 6 24.1 99.99     LegendNANA

Notes on Data Quality.

Legend

  • E = Estimated
  • M = Missing
  • NA = Not Available
  • ‡ = Partner data that is not subject to review by the National Climate Archives
Date modified: